EW3286 Weather Reports


Display with metric or nautical units.
time (UTC)temp
F
wind
direction
speed
MPH
gust
MPH
rain 1hr
in
rain 24hr
in
rain mn
in
humidity
%
barometer
mb
20260506204554 50 166 0.0 0.0 0.00 0.00 0.00 41 1016.7
20260506203052 50 178 0.0 0.0 0.00 0.00 0.00 42 1016.9
20260506201551 49 182 0.0 0.0 0.00 0.00 0.00 41 1017.0
20260506200055 49 207 0.0 0.0 0.00 0.00 0.00 45 1017.2
20260506194545 48 185 0.0 0.0 0.00 0.00 0.00 43 1017.3
20260506193042 48 194 0.0 0.0 0.00 0.00 0.00 43 1017.5
20260506191543 48 183 0.0 0.0 0.00 0.00 0.00 43 1017.7
20260506190039 47 176 0.0 0.0 0.00 0.00 0.00 44 1017.7
20260506184537 47 227 0.0 0.0 0.00 0.00 0.00 44 1017.7
20260506183034 47 216 0.0 0.0 0.00 0.00 0.00 45 1017.9
20260506181531 46 200 0.0 0.0 0.00 0.00 0.00 46 1018.2
20260506180029 46 217 0.0 0.0 0.00 0.00 0.00 47 1018.3
20260506174525 45 221 0.0 0.0 0.00 0.00 0.00 48 1018.4
20260506173025 45 229 0.0 0.0 0.00 0.00 0.00 48 1018.5
20260506171523 44 196 0.0 0.0 0.00 0.00 0.00 49 1018.5
20260506170018 44 216 0.0 0.0 0.00 0.00 0.00 50 1018.5
20260506164516 44 191 0.0 0.0 0.00 0.00 0.00 48 1018.5
20260506163013 44 219 0.0 0.0 0.00 0.00 0.00 48 1018.6
20260506161510 44 211 0.0 0.0 0.00 0.00 0.00 51 1018.6
20260506160007 44 202 0.0 0.0 0.00 0.00 0.00 49 1018.6
20260506154504 43 211 0.0 0.0 0.00 0.00 0.00 51 1018.5
20260506153005 43 215 0.0 0.0 0.00 0.00 0.00 53 1018.6
20260506151601 42 218 0.0 0.0 0.00 0.00 0.00 52 1018.7
20260506150100 42 229 0.0 0.0 0.00 0.00 0.00 52 1018.7
20260506144605 41 197 0.0 0.0 0.00 0.00 0.00 53 1018.7
20260506143050 41 206 0.0 0.0 0.00 0.00 0.00 54 1018.7
20260506141546 41 213 0.0 0.0 0.00 0.00 0.00 55 1018.7
20260506140046 40 212 0.0 0.0 0.00 0.00 0.00 57 1018.6
20260506134543 40 217 0.0 0.0 0.00 0.00 0.00 62 1018.6
20260506133044 40 237 0.0 0.0 0.00 0.00 0.00 62 1018.6
20260506131537 39 209 0.0 0.0 0.00 0.00 0.00 64 1018.7
20260506130034 38 232 0.0 0.0 0.00 0.00 0.00 65 1018.5
20260506124528 38 225 0.0 0.0 0.00 0.00 0.00 67 1018.4
20260506123025 37 229 0.0 0.0 0.00 0.00 0.00 72 1018.3
20260506121525 36 250 0.0 0.0 0.00 0.00 0.00 75 1018.1
20260506120026 35 257 0.0 0.0 0.00 0.00 0.00 76 1017.8
20260506114513 35 257 0.0 0.0 0.00 0.00 0.00 75 1017.4
20260506113011 35 274 0.0 0.0 0.00 0.00 0.00 75 1017.4
20260506111509 34 219 0.0 0.0 0.00 0.00 0.00 76 1017.5
20260506110007 34 219 0.0 0.0 0.00 0.00 0.00 76 1017.5
20260506104505 33 219 0.0 0.0 0.00 0.00 0.00 75 1017.1
20260506103005 33 219 0.0 0.0 0.00 0.00 0.00 76 1017.1
20260506101504 33 219 0.0 0.0 0.00 0.00 0.00 76 1017.2
20260506100003 32 223 0.0 0.0 0.00 0.00 0.00 76 1016.7
20260506094501 32 223 0.0 0.0 0.00 0.00 0.00 75 1016.8
20260506093001 32 223 0.0 0.0 0.00 0.00 0.00 74 1016.9
20260506091602 32 231 0.0 0.0 0.00 0.00 0.00 71 1016.8
20260506090100 33 241 0.0 0.0 0.00 0.00 0.00 72 1016.4
20260506084600 32 242 0.0 0.0 0.00 0.00 0.00 74 1016.0
20260506083157 31 212 0.0 0.0 0.00 0.00 0.00 74 1016.4
20260506081555 31 211 0.0 0.0 0.00 0.00 0.00 72 1016.4
20260506080106 31 211 0.0 0.0 0.00 0.00 0.00 70 1016.3
20260506073105 32 232 0.0 0.0 0.00 0.00 0.00 71 1016.3
20260506071552 32 232 0.0 0.0 0.00 0.00 0.00 70 1016.1
20260506061540 34 233 0.0 0.0 0.00 0.00 0.00 66 1016.0
20260506044537 36 243 0.0 0.0 0.00 0.00 0.00 62 1015.5
20260506043027 35 222 0.0 0.0 0.00 0.00 0.00 62 1015.6
20260506041538 36 221 0.0 0.0 0.00 0.00 0.00 59 1015.5
20260506040029 37 221 0.0 0.0 0.00 0.00 0.00 57 1015.6
20260506034530 39 221 0.0 0.0 0.00 0.00 0.00 54 1015.4
20260506033022 40 221 0.0 0.0 0.00 0.00 0.00 53 1015.3
20260506031521 41 216 0.0 0.0 0.00 0.00 0.00 51 1015.2
20260506030022 42 252 0.0 0.0 0.00 0.00 0.00 49 1015.1
20260506024519 43 251 0.0 0.0 0.00 0.00 0.00 48 1014.8
20260506023019 44 236 0.0 0.0 0.00 0.00 0.00 47 1014.5
20260506021514 44 267 0.0 0.0 0.00 0.00 0.00 47 1014.2
20260506020010 45 240 0.0 0.0 0.00 0.00 0.00 46 1014.0
20260506014514 45 231 0.0 0.0 0.00 0.00 0.00 44 1013.9
20260506013009 46 219 0.0 0.0 0.00 0.00 0.00 44 1013.9
20260506011521 46 221 0.0 0.0 0.00 0.00 0.00 42 1013.6
20260506010005 46 220 0.0 0.0 0.00 0.00 0.00 41 1013.5
20260506004515 47 238 0.0 0.0 0.00 0.00 0.00 41 1013.3
20260506003003 47 238 0.0 0.0 0.00 0.00 0.00 40 1013.2
20260506001502 47 200 0.0 0.0 0.00 0.00 0.00 40 1013.0
20260505234601 47 224 0.0 0.0 0.00 0.00 0.00 39 1012.7
20260505233058 48 230 0.0 0.0 0.00 0.00 0.00 37 1012.6
20260505231558 48 238 0.0 0.0 0.00 0.00 0.00 38 1012.5
20260505230100 48 218 0.0 0.0 0.00 0.00 0.00 38 1012.4
20260505224556 48 191 0.0 0.0 0.00 0.00 0.00 39 1012.4
20260505223057 48 252 0.0 0.0 0.00 0.00 0.00 39 1012.4
20260505221604 49 198 0.0 0.0 0.00 0.00 0.00 40 1012.3
20260505220104 49 196 0.0 0.0 0.00 0.00 0.00 39 1012.2
20260505214555 49 218 0.0 0.0 0.00 0.00 0.00 40 1012.2
20260505213051 49 232 0.0 0.0 0.00 0.00 0.00 43 1012.3
20260505211551 49 202 0.0 0.0 0.00 0.00 0.00 42 1012.4
20260505210053 48 180 0.0 0.0 0.00 0.00 0.00 43 1012.4